• En España
  • Lista de países
  • Para 7 días
  • Temperatura del agua
  • Mapa Satelital
  • El tiempo en el mapa
  • Informadores
  • user-avatar
    Iniciar sesión

    Tiempo cada hora Vendas Novas

    Hoy, 22 Noviembre, Miércoles

    Tiempo Temperatura Precipitaciones Viento Presión Humedad
    00:00 +13°C° 0 mm 2 mps 750 mmHg 71%
    01:00 +12°C° 0 mm 2 mps 750 mmHg 71%
    02:00 +12°C° 0 mm 2 mps 749 mmHg 70%
    03:00 +12°C° 0 mm 2 mps 749 mmHg 70%
    04:00 +12°C° 0 mm 2 mps 749 mmHg 70%
    05:00 +10°C° 0 mm 2 mps 749 mmHg 70%
    06:00 +11°C° 0 mm 3 mps 749 mmHg 67%
    07:00 +12°C° 0 mm 3 mps 749 mmHg 65%
    08:00 +14°C° 0 mm 3 mps 749 mmHg 63%
    09:00 +17°C° 0 mm 4 mps 749 mmHg 57%
    10:00 +19°C° 0 mm 5 mps 749 mmHg 51%
    11:00 +22°C° 0 mm 5 mps 748 mmHg 45%
    12:00 +22°C° 0 mm 5 mps 748 mmHg 44%
    13:00 +22°C° 0 mm 5 mps 748 mmHg 42%
    14:00 +23°C° 0 mm 6 mps 747 mmHg 41%
    15:00 +22°C° 0 mm 5 mps 747 mmHg 45%
    16:00 +20°C° 0 mm 4 mps 747 mmHg 49%
    17:00 +19°C° 0 mm 4 mps 747 mmHg 53%
    18:00 +19°C° 0 mm 4 mps 748 mmHg 58%
    19:00 +18°C° 0 mm 4 mps 748 mmHg 63%
    20:00 +17°C° 0 mm 4 mps 748 mmHg 68%
    21:00 +17°C° 0 mm 4 mps 748 mmHg 70%
    22:00 +17°C° 0 mm 4 mps 748 mmHg 71%
    23:00 +18°C° 0 mm 4 mps 748 mmHg 72%

    Mañana, 23 Noviembre, Jueves

    Tiempo Temperatura Precipitaciones Viento Presión Humedad
    00:00 +17°C° 0 mm 4 mps 748 mmHg 73%
    01:00 +17°C° 0 mm 4 mps 748 mmHg 74%
    02:00 +17°C° 0 mm 4 mps 748 mmHg 74%
    03:00 +17°C° 0 mm 4 mps 748 mmHg 75%
    04:00 +17°C° 0 mm 4 mps 748 mmHg 75%
    05:00 +17°C° 0 mm 4 mps 748 mmHg 75%
    06:00 +16°C° 0 mm 5 mps 748 mmHg 71%
    07:00 +17°C° 0 mm 5 mps 749 mmHg 67%
    08:00 +17°C° 0 mm 6 mps 749 mmHg 63%
    09:00 +20°C° 0 mm 6 mps 749 mmHg 55%
    10:00 +21°C° 0 mm 7 mps 749 mmHg 47%
    11:00 +22°C° 0 mm 7 mps 749 mmHg 39%
    12:00 +22°C° 0,1 mm 7 mps 749 mmHg 39%
    13:00 +22°C° 0,1 mm 7 mps 748 mmHg 39%
    14:00 +22°C° 0,1 mm 7 mps 748 mmHg 39%
    15:00 +21°C° 0,1 mm 7 mps 748 mmHg 47%
    16:00 +20°C° 0,1 mm 7 mps 749 mmHg 54%
    17:00 +20°C° 0,1 mm 7 mps 749 mmHg 62%
    18:00 +19°C° 0,1 mm 6 mps 749 mmHg 64%
    19:00 +17°C° 0,1 mm 5 mps 750 mmHg 66%
    20:00 +17°C° 0,1 mm 5 mps 750 mmHg 68%
    21:00 +18°C° 0,1 mm 4 mps 750 mmHg 68%
    22:00 +17°C° 0,1 mm 4 mps 750 mmHg 68%
    23:00 +17°C° 0,1 mm 3 mps 750 mmHg 68%

    Pasado mañana, 24 Noviembre, Viernes

    Tiempo Temperatura Precipitaciones Viento Presión Humedad
    00:00 +17°C° 0,4 mm 3 mps 750 mmHg 72%
    01:00 +16°C° 0,4 mm 3 mps 750 mmHg 77%
    02:00 +16°C° 0,4 mm 3 mps 750 mmHg 81%
    03:00 +16°C° 0,1 mm 3 mps 750 mmHg 83%
    04:00 +14°C° 0,1 mm 3 mps 749 mmHg 85%
    05:00 +14°C° 0,1 mm 3 mps 749 mmHg 87%
    06:00 +15°C° 0 mm 4 mps 750 mmHg 82%
    07:00 +15°C° 0 mm 4 mps 750 mmHg 77%
    08:00 +17°C° 0 mm 4 mps 750 mmHg 72%
    09:00 +19°C° 0 mm 5 mps 750 mmHg 64%
    10:00 +21°C° 0 mm 6 mps 750 mmHg 55%
    11:00 +23°C° 0 mm 7 mps 750 mmHg 47%
    12:00 +23°C° 0 mm 6 mps 750 mmHg 48%
    13:00 +23°C° 0 mm 6 mps 750 mmHg 49%
    14:00 +23°C° 0 mm 6 mps 750 mmHg 50%
    15:00 +21°C° 0 mm 5 mps 750 mmHg 57%
    16:00 +20°C° 0 mm 4 mps 750 mmHg 65%
    17:00 +18°C° 0 mm 3 mps 750 mmHg 72%
    18:00 +18°C° 0,1 mm 3 mps 750 mmHg 75%
    19:00 +17°C° 0,1 mm 2 mps 751 mmHg 79%
    20:00 +17°C° 0,1 mm 2 mps 751 mmHg 82%
    21:00 +16°C° 0 mm 2 mps 751 mmHg 82%
    22:00 +16°C° 0 mm 1 mps 751 mmHg 82%
    23:00 +16°C° 0 mm 1 mps 751 mmHg 82%

    25 Noviembre, Sábado

    Tiempo Temperatura Precipitaciones Viento Presión Humedad
    00:00 +16°C° 0 mm 1 mps 751 mmHg 82%
    01:00 +16°C° 0 mm 1 mps 751 mmHg 81%
    02:00 +16°C° 0 mm 1 mps 751 mmHg 81%
    03:00 +16°C° 0 mm 1 mps 751 mmHg 82%
    04:00 +16°C° 0 mm 1 mps 751 mmHg 82%
    05:00 +16°C° 0 mm 1 mps 751 mmHg 82%
    06:00 +16°C° 0,3 mm 1 mps 752 mmHg 82%
    07:00 +16°C° 0,3 mm 1 mps 752 mmHg 83%
    08:00 +16°C° 0,3 mm 1 mps 752 mmHg 83%
    09:00 +18°C° 0,2 mm 1 mps 752 mmHg 80%
    10:00 +19°C° 0,2 mm 1 mps 752 mmHg 76%
    11:00 +20°C° 0,2 mm 1 mps 752 mmHg 72%
    12:00 +19°C° 0,4 mm 1 mps 752 mmHg 75%
    13:00 +19°C° 0,4 mm 1 mps 752 mmHg 78%
    14:00 +18°C° 0,4 mm 1 mps 752 mmHg 81%
    15:00 +18°C° 0,3 mm 1 mps 752 mmHg 83%
    16:00 +16°C° 0,3 mm 1 mps 752 mmHg 85%
    17:00 +16°C° 0,3 mm 1 mps 752 mmHg 87%
    18:00 +15°C° 0,3 mm 1 mps 753 mmHg 87%
    19:00 +15°C° 0,3 mm 1 mps 753 mmHg 87%
    20:00 +15°C° 0,3 mm 1 mps 753 mmHg 86%
    21:00 +15°C° 0 mm 1 mps 753 mmHg 86%
    22:00 +15°C° 0 mm 1 mps 753 mmHg 86%
    23:00 +15°C° 0 mm 1 mps 753 mmHg 85%

    26 Noviembre, Domingo

    Tiempo Temperatura Precipitaciones Viento Presión Humedad
    00:00 +14°C° 0,2 mm 1 mps 753 mmHg 85%
    01:00 +14°C° 0,2 mm 1 mps 753 mmHg 86%
    02:00 +14°C° 0,2 mm 1 mps 753 mmHg 86%
    03:00 +14°C° 0,3 mm 1 mps 753 mmHg 87%
    04:00 +14°C° 0,3 mm 1 mps 753 mmHg 87%
    05:00 +14°C° 0,3 mm 1 mps 753 mmHg 88%
    06:00 +14°C° 0,3 mm 1 mps 753 mmHg 88%
    07:00 +14°C° 0,3 mm 1 mps 754 mmHg 87%
    08:00 +15°C° 0,3 mm 1 mps 754 mmHg 87%
    09:00 +15°C° 0,3 mm 1 mps 755 mmHg 86%
    10:00 +16°C° 0,3 mm 1 mps 755 mmHg 84%
    11:00 +16°C° 0,3 mm 1 mps 755 mmHg 83%
    12:00 +18°C° 0,1 mm 1 mps 755 mmHg 81%
    13:00 +18°C° 0,1 mm 1 mps 754 mmHg 78%
    14:00 +19°C° 0,1 mm 1 mps 754 mmHg 76%
    15:00 +17°C° 0 mm 2 mps 754 mmHg 80%
    16:00 +16°C° 0 mm 2 mps 754 mmHg 85%
    17:00 +15°C° 0 mm 2 mps 754 mmHg 89%
    18:00 +14°C° 0 mm 2 mps 755 mmHg 90%
    19:00 +14°C° 0 mm 2 mps 755 mmHg 91%
    20:00 +13°C° 0 mm 2 mps 755 mmHg 92%
    21:00 +13°C° 0 mm 2 mps 755 mmHg 91%
    22:00 +12°C° 0 mm 3 mps 755 mmHg 90%
    23:00 +12°C° 0 mm 3 mps 755 mmHg 90%

    27 Noviembre, Lunes

    Tiempo Temperatura Precipitaciones Viento Presión Humedad
    00:00 +12°C° 0 mm 3 mps 754 mmHg 89%
    01:00 +12°C° 0 mm 3 mps 754 mmHg 88%
    02:00 +12°C° 0 mm 3 mps 754 mmHg 88%
    03:00 +12°C° 0 mm 3 mps 754 mmHg 86%
    04:00 +12°C° 0 mm 3 mps 754 mmHg 84%
    05:00 +12°C° 0 mm 3 mps 754 mmHg 83%
    06:00 +13°C° 0 mm 3 mps 754 mmHg 81%
    07:00 +13°C° 0 mm 3 mps 754 mmHg 78%
    08:00 +13°C° 0 mm 3 mps 754 mmHg 76%
    09:00 +16°C° 0 mm 3 mps 754 mmHg 71%
    10:00 +17°C° 0 mm 3 mps 754 mmHg 66%
    11:00 +18°C° 0 mm 3 mps 754 mmHg 61%
    12:00 +18°C° 0 mm 3 mps 753 mmHg 61%
    13:00 +18°C° 0 mm 3 mps 752 mmHg 60%
    14:00 +18°C° 0 mm 3 mps 752 mmHg 60%
    15:00 +18°C° 0 mm 3 mps 751 mmHg 64%
    16:00 +17°C° 0 mm 3 mps 751 mmHg 67%
    17:00 +16°C° 0 mm 2 mps 751 mmHg 71%
    18:00 +16°C° 0,2 mm 3 mps 750 mmHg 74%
    19:00 +16°C° 0,2 mm 3 mps 750 mmHg 77%
    20:00 +16°C° 0,2 mm 3 mps 750 mmHg 80%
    21:00 +16°C° 0,8 mm 3 mps 749 mmHg 83%
    22:00 +16°C° 0,8 mm 3 mps 749 mmHg 86%
    23:00 +16°C° 0,8 mm 3 mps 748 mmHg 89%
    Mostrar más